Weather History for Norfolk, NE

Change the Weather History Date:

Sunday, January 26, 2014

  Actual Average Record
Temperature  
Mean Temperature 30 °F 23 °F  
Max Temperature 54 °F 34 °F 74 °F (2002)
Min Temperature 5 °F 12 °F -24 °F (1950)
Degree Days  
Heating Degree Days 35 42  
Month to date heating degree days 1088 1111  
Since 1 July heating degree days 3850 3817  
Cooling Degree Days 0 0  
Month to date cooling degree days 0 0  
Year to date cooling degree days 0 0  
Moisture  
Dew Point 13 °F    
Average Humidity 50    
Maximum Humidity 69    
Minimum Humidity 30    
Precipitation  
Precipitation T in 0.02 in 0.62 in (1941)
Month to date precipitation 0.13 0.48  
Year to date precipitation 0.13 0.48  
Snow  
Snow 0.00 in 0.30 in - ()
Month to date snowfall 1.0 5.3  
Since 1 July snowfall 4.3 16.2  
Snow Depth 0.00 in    
Sea Level Pressure  
Sea Level Pressure 29.88 in    
Wind  
Wind Speed 26 mph (NW)    
Max Wind Speed 47 mph    
Max Gust Speed 62 mph    
Visibility 10 miles    
Events Rain    
T = Trace of Precipitation, MM = Missing Value Source: NWS Daily Summary

Daily Weather History Graph

Daily Weather History Graph

Search for Another Location

Airport:

Trip Planner

Search our weather history database for the weather conditions in past years. The results will help you decide how hot, cold, wet, or windy it might be!

Date:

Astronomy

Jan. 26, 2014 Rise Set
Actual Time 7:48 AM CST 5:37 PM CST
Civil Twilight 7:18 AM CST 6:07 PM CST
Nautical Twilight 6:44 AM CST 6:40 PM CST
Astronomical Twilight 6:11 AM CST 7:13 PM CST
Moon 3:27 AM CST (1/26) 1:27 PM CST (1/26)
Length of Visible Light 10h 49m
Length of Day
9h 49m
Waning Crescent, 23% of the Moon is Illuminated
Jan 26
Waning Crescent
Jan 30
New
Feb 6
First Quarter
Feb 14
Full
Feb 22
Last Quarter

Hourly Weather History & Observations

Time (CST) Temp. Windchill Dew Point Humidity Pressure Visibility Wind Dir Wind Speed Gust Speed Precip Events Conditions
12:56 AM 53.1 °F - 28.9 °F 40% 29.53 in 10.0 mi WNW 24.2 mph 38.0 mph N/A   Clear
1:56 AM 50.0 °F - 28.9 °F 44% 29.55 in 10.0 mi WNW 21.9 mph 32.2 mph N/A   Mostly Cloudy
2:56 AM 48.0 °F - 30.9 °F 52% 29.59 in 10.0 mi NW 18.4 mph - N/A   Clear
3:56 AM 45.0 °F 36.4 °F 30.9 °F 58% 29.62 in 10.0 mi NW 23.0 mph 29.9 mph N/A   Clear
4:56 AM 44.1 °F 35.9 °F 28.9 °F 55% 29.63 in 10.0 mi NW 19.6 mph 29.9 mph N/A   Mostly Cloudy
5:56 AM 42.1 °F 34.2 °F 28.9 °F 60% 29.64 in 10.0 mi WNW 16.1 mph 21.9 mph N/A   Mostly Cloudy
6:56 AM 39.9 °F 31.1 °F 28.9 °F 65% 29.66 in 10.0 mi WNW 17.3 mph 25.3 mph N/A   Partly Cloudy
7:56 AM 39.0 °F 30.6 °F 28.0 °F 65% 29.64 in 10.0 mi West 15.0 mph - N/A   Mostly Cloudy
8:56 AM 39.9 °F 31.4 °F 27.0 °F 60% 29.62 in 10.0 mi West 16.1 mph - N/A   Clear
9:56 AM 44.1 °F 35.2 °F 27.0 °F 51% 29.60 in 10.0 mi WNW 23.0 mph 28.8 mph N/A   Clear
10:56 AM 46.0 °F 38.5 °F 28.0 °F 50% 29.60 in 10.0 mi WNW 19.6 mph 28.8 mph N/A   Clear
11:56 AM 48.0 °F - 27.0 °F 44% 29.58 in 10.0 mi WNW 25.3 mph 34.5 mph N/A   Clear
12:56 PM 52.0 °F - 21.9 °F 31% 29.55 in 6.0 mi NW 34.5 mph 54.1 mph N/A   Haze
1:56 PM 39.0 °F 26.6 °F 26.1 °F 60% 29.64 in 10.0 mi NNW 33.4 mph 50.6 mph 0.00 in Rain Light Rain
2:56 PM 33.1 °F 18.9 °F 18.0 °F 54% 29.76 in 10.0 mi NNW 31.1 mph 43.7 mph 0.00 in   Mostly Cloudy
3:56 PM 28.9 °F 11.7 °F 5.0 °F 36% 29.85 in 10.0 mi NNW 39.1 mph 50.6 mph 0.00 in   Scattered Clouds
4:56 PM 23.0 °F 1.7 °F -2.9 °F 32% 29.93 in 10.0 mi NNW 49.5 mph 62.1 mph N/A   Clear
5:56 PM 18.0 °F -3.3 °F 3.9 °F 54% 30.05 in 10.0 mi NNW 38.0 mph 49.5 mph N/A   Mostly Cloudy
6:56 PM 15.1 °F -6.5 °F -7.1 °F 37% 30.13 in 10.0 mi NNW 34.5 mph 49.5 mph N/A   Clear
7:56 PM 10.9 °F -10.3 °F -7.1 °F 44% 30.21 in 10.0 mi NNW 27.6 mph 39.1 mph N/A   Clear
8:56 PM 9.0 °F -14.0 °F -9.0 °F 44% 30.26 in 10.0 mi NNW 31.1 mph 40.3 mph N/A   Scattered Clouds
9:27 PM 7.0 °F -12.6 °F -2.9 °F 64% 30.22 in 10.0 mi North 19.6 mph - N/A   Overcast
9:56 PM 7.0 °F -13.1 °F -2.9 °F 64% 30.31 in 9.0 mi NNW 20.7 mph - N/A   Overcast
10:54 PM 6.8 °F -16.2 °F -5.8 °F 56% 30.26 in 10.0 mi NNW 28.8 mph 35.7 mph N/A   Overcast
10:56 PM 6.1 °F -16.1 °F -7.1 °F 55% 30.32 in 10.0 mi NNW 25.3 mph 35.7 mph N/A   Overcast
11:28 PM 5.0 °F -17.1 °F -7.1 °F 58% 30.27 in 10.0 mi NNW 24.2 mph 32.2 mph N/A   Overcast
11:46 PM 5.0 °F -18.7 °F -7.1 °F 58% 30.28 in 10.0 mi NW 28.8 mph 36.8 mph N/A   Scattered Clouds
11:56 PM 5.0 °F -16.7 °F -7.1 °F 58% 30.35 in 10.0 mi NNW 23.0 mph 33.4 mph N/A   Partly Cloudy